This demonstration page uses our WeatherBlox Daily Observations layout. Learn more.

39.29038, -76.61219

Hourly Observations for March 30, 2019

Temp ( °F °C ) Dew Point ( °F °C ) Humidity (%) Winds ( mph kmh ) Pressure ( in mb ) Visibility ( mi km ) Precip ( " mm )
12:54 am 00:54 undefined 59 15 43 6.1 56 56 undefined N/A 30.08 1019 N/A 0 0
1:54 am 01:54 undefined 57 13.9 44 6.7 62 62 undefined N/A 30.06 1018 N/A 0 0
2:54 am 02:54 undefined 56 13.3 44 6.7 65 65 undefined N/A 30.04 1017 N/A 0 0
3:54 am 03:54 undefined 56 13.3 44 6.7 65 65 undefined N/A 30.01 1016 N/A 0 0
4:54 am 04:54 undefined 55 12.8 45 7.2 69 69 undefined N/A 30 1016 N/A 0 0
5:54 am 05:54 undefined 54 12.2 45 7.2 72 72 undefined N/A 30.01 1016 N/A 0 0
6:54 am 06:54 undefined 54 12.2 45 7.2 72 72 undefined N/A 30.02 1017 N/A 0 0
7:54 am 07:54 undefined 54 12.2 45 7.2 72 72 undefined N/A 30.03 1017 N/A 0 0
8:54 am 08:54 undefined 56 13.3 47 8.3 72 72 undefined N/A 30.02 1017 N/A 0 0
9:54 am 09:54 undefined 57 13.9 46 7.8 67 67 undefined N/A 30.02 1017 N/A 0 0
10:54 am 10:54 undefined 61 16.1 47 8.3 60 60 undefined N/A 30.01 1016 N/A 0 0
11:54 am 11:54 undefined 67 19.4 45 7.2 45 45 undefined N/A 29.98 1015 N/A 0 0
12:54 pm 12:54 undefined 69 20.6 47 8.3 45 45 undefined N/A 29.96 1015 N/A 0 0
1:54 pm 13:54 undefined 72 22.2 46 7.8 40 40 undefined N/A 29.93 1014 N/A 0 0
2:54 pm 14:54 undefined 73 22.8 46 7.8 38 38 undefined N/A 29.89 1012 N/A 0 0
3:54 pm 15:54 undefined 72 22.2 45 7.2 38 38 undefined N/A 29.87 1012 N/A 0 0
4:54 pm 16:54 undefined 71 21.7 45 7.2 39 39 undefined N/A 29.85 1011 N/A 0 0
5:54 pm 17:54 undefined 70 21.1 46 7.8 42 42 undefined N/A 29.83 1010 N/A 0 0
6:54 pm 18:54 undefined 67 19.4 47 8.3 49 49 undefined N/A 29.83 1010 N/A 0 0
7:54 pm 19:54 undefined 65 18.3 47 8.3 52 52 undefined N/A 29.82 1010 N/A 0 0
8:54 pm 20:54 undefined 64 17.8 47 8.3 54 54 undefined N/A 29.82 1010 N/A 0 0
9:54 pm 21:54 undefined 63 17.2 47 8.3 56 56 undefined N/A 29.81 1010 N/A 0 0
10:54 pm 22:54 undefined 63 17.2 46 7.8 54 54 undefined N/A 29.79 1009 N/A 0 0
11:54 pm 23:54 undefined 62 16.7 45 7.2 54 54 undefined N/A 29.76 1008 N/A 0 0

Powered by AerisWeather